DW7857 Weather Reports


time (UTC)temp
F
wind
direction
speed
knots
gust
knots
rain 1hr
in
rain 24hr
in
rain mn
in
humidity
%
barometer
mb
20260507113603 62 203 6.1 10.4 0.00 0.00 0.00 49 1014.0
20260507112703 61 225 6.1 8.7 0.00 0.00 0.00 48 1013.9
20260507111803 62 204 5.2 7.8 0.00 0.00 0.00 47 1013.9
20260507110903 61 173 6.1 8.7 0.00 0.00 0.00 47 1014.0
20260507110003 61 203 6.1 8.7 0.00 0.00 0.00 49 1014.1
20260507105403 60 166 6.1 8.7 0.00 0.00 0.00 50 1014.0
20260507104713 61 139 6.1 9.6 0.00 0.00 0.00 51 1014.1
20260507103603 60 175 6.1 10.4 0.00 0.00 0.00 52 1014.3
20260507102703 60 192 6.1 8.7 0.00 0.00 0.00 50 1014.0
20260507101803 59 203 6.1 8.7 0.00 0.00 0.00 50 1014.0
20260507100903 60 186 5.2 7.0 0.00 0.00 0.00 52 1014.0
20260507100003 59 217 5.2 7.8 0.00 0.00 0.00 55 1014.2
20260507095403 58 196 5.2 7.8 0.00 0.00 0.00 54 1013.8
20260507094503 58 200 6.1 7.8 0.00 0.00 0.00 56 1014.0
20260507093603 58 189 6.1 7.8 0.00 0.00 0.00 57 1013.9
20260507092703 60 208 4.3 6.1 0.00 0.00 0.00 58 1013.8
20260507091803 60 128 3.5 4.3 0.00 0.00 0.00 59 1013.6
20260507090903 59 88 3.5 5.2 0.00 0.00 0.00 61 1013.8
20260507090004 57 200 3.5 5.2 0.00 0.00 0.00 62 1013.8
20260507085403 57 178 3.5 4.3 0.00 0.00 0.00 67 1013.8
20260507084714 57 161 3.5 7.0 0.00 0.00 0.00 69 1013.8
20260507083603 56 189 5.2 7.8 0.00 0.00 0.00 70 1013.8
20260507082703 56 112 3.5 4.3 0.00 0.00 0.00 71 1013.8
20260507081803 55 219 3.5 5.2 0.00 0.00 0.00 71 1014.0
20260507080903 55 211 3.5 4.3 0.00 0.00 0.00 71 1014.1
20260507080004 55 195 3.5 5.2 0.00 0.00 0.00 71 1013.6
20260507075403 54 204 2.6 3.5 0.00 0.00 0.00 72 1013.7
20260507074713 54 220 2.6 3.5 0.00 0.00 0.00 75 1013.7
20260507073603 53 170 2.6 4.3 0.00 0.00 0.00 76 1013.6
20260507072703 52 225 2.6 4.3 0.00 0.00 0.00 75 1013.9
20260507071803 52 250 2.6 4.3 0.00 0.00 0.00 75 1013.7
20260507070903 52 137 1.7 5.2 0.00 0.00 0.00 75 1013.6
20260507070006 51 212 0.9 1.7 0.00 0.00 0.00 75 1013.4
20260507065403 51 301 0.9 1.7 0.00 0.00 0.00 75 1013.5
20260507064503 50 227 0.9 1.7 0.00 0.00 0.00 75 1013.5
20260507063603 50 223 0.9 1.7 0.00 0.00 0.00 75 1013.3
20260507062703 49 210 0.9 1.7 0.00 0.00 0.00 75 1013.2
20260507062013 49 192 1.7 2.6 0.00 0.00 0.00 75 1013.4
20260507060903 49 179 0.9 1.7 0.00 0.00 0.00 75 1013.6
20260507060003 48 205 1.7 3.5 0.00 0.00 0.00 75 1013.6
20260507055403 48 225 1.7 1.7 0.00 0.00 0.00 76 1013.2
20260506184504 56 90 0.9 1.7 0.00 0.00 0.00 52 1016.8
20260506183814 56 92 0.9 1.7 0.00 0.00 0.00 50 1016.8
20260506182703 56 71 0.9 1.7 0.00 0.00 0.00 50 1016.7
20260506182013 56 95 0.9 1.7 0.00 0.00 0.00 50 1016.5
20260506180903 56 47 1.7 2.6 0.00 0.00 0.00 49 1016.6
20260506180004 56 32 2.6 3.5 0.00 0.00 0.00 47 1016.5
20260506175613 57 61 2.6 2.6 0.00 0.00 0.00 48 1016.7
20260506174503 57 71 1.7 1.7 0.00 0.00 0.00 48 1016.4
20260506173603 57 83 1.7 3.5 0.00 0.00 0.00 48 1016.3
20260506172913 57 87 1.7 3.5 0.00 0.00 0.00 47 1016.4
20260506171803 58 72 1.7 2.6 0.00 0.00 0.00 46 1016.2
20260506170903 58 93 1.7 2.6 0.00 0.00 0.00 46 1016.3
20260506170003 58 65 1.7 2.6 0.00 0.00 0.00 46 1016.2
20260506165613 58 68 1.7 2.6 0.00 0.00 0.00 46 1016.1
20260506164714 58 101 1.7 3.5 0.00 0.00 0.00 45 1016.3
20260506163603 58 70 2.6 3.5 0.00 0.00 0.00 45 1016.3
20260506162703 58 88 2.6 4.3 0.00 0.00 0.00 46 1016.4
20260506161803 59 24 1.7 4.3 0.00 0.00 0.00 44 1016.2
20260506160903 59 62 1.7 3.5 0.00 0.00 0.00 43 1016.3
20260506160004 60 63 2.6 3.5 0.00 0.00 0.00 43 1016.1
20260506155403 60 63 1.7 2.6 0.00 0.00 0.00 44 1016.1
20260506154503 60 53 3.5 6.1 0.00 0.00 0.00 42 1016.4
20260506153603 61 74 1.7 4.3 0.00 0.00 0.00 40 1016.4
20260506152912 62 87 2.6 3.5 0.00 0.00 0.00 41 1016.5
20260506151803 62 31 3.5 7.0 0.00 0.00 0.00 42 1016.3
20260506150903 63 311 3.5 5.2 0.00 0.00 0.00 40 1016.4
20260506150214 63 290 3.5 7.0 0.00 0.00 0.00 41 1016.4
20260506145403 63 340 3.5 7.0 0.00 0.00 0.00 41 1016.4
20260506144713 63 106 2.6 3.5 0.00 0.00 0.00 42 1016.5
20260506143603 61 340 2.6 5.2 0.00 0.00 0.00 43 1016.7
20260506142703 60 357 2.6 3.5 0.00 0.00 0.00 44 1016.6
20260506141803 59 41 2.6 3.5 0.00 0.00 0.00 47 1016.9
20260506140903 59 343 2.6 3.5 0.00 0.00 0.00 45 1016.8
20260506140003 58 31 2.6 3.5 0.00 0.00 0.00 47 1016.9
20260506135403 58 11 2.6 3.5 0.00 0.00 0.00 47 1016.9
20260506134503 58 100 2.6 3.5 0.00 0.00 0.00 47 1016.8
20260506133603 58 36 2.6 4.3 0.00 0.00 0.00 47 1017.0
20260506132703 58 38 2.6 4.3 0.00 0.00 0.00 48 1017.3
20260506132013 58 352 2.6 5.2 0.00 0.00 0.00 49 1017.1
20260506130903 58 71 2.6 5.2 0.00 0.00 0.00 50 1017.1
20260506130004 58 1 3.5 5.2 0.00 0.00 0.00 50 1017.0
20260506125403 57 14 3.5 5.2 0.00 0.00 0.00 50 1017.0
20260506124503 57 91 2.6 4.3 0.00 0.00 0.00 50 1017.0
20260506123603 56 15 2.6 4.3 0.00 0.00 0.00 51 1017.1
20260506122913 56 41 3.5 5.2 0.00 0.00 0.00 51 1017.1
20260506121803 56 45 3.5 5.2 0.00 0.00 0.00 51 1017.0
20260506120903 55 27 3.5 4.3 0.00 0.00 0.00 51 1017.2
20260506120004 55 72 3.5 5.2 0.00 0.00 0.00 52 1017.0
20260506115613 55 97 3.5 5.2 0.00 0.00 0.00 52 1017.0
20260506114503 55 50 3.5 5.2 0.00 0.00 0.00 53 1017.1